{"data":{"norad_id":67882,"intl_designator":"2026-035D","name":"STARLINK-36817","alt_names":[],"object_type":"PAYLOAD","status":"ACTIVE","operator":null,"country":"US","launch_date":"2026-02-21","launch_site_code":"AFWTR","launch_vehicle":null,"mission":null,"orbit_class":"UNKNOWN","rcs_meters":null,"size_class":null,"mass_kg":null,"dimensions":null,"purposes":["comms"],"wikipedia_slug":null,"has_3d_model":false,"image_url":null,"decayed_at":null,"tle_current":{"epoch":"2026-05-25T01:44:03.697728Z","epoch_age_seconds":59003,"freshness":"FRESH","line1":"1 67882U 26035D   26145.07226502  .00017525  00000+0  54360-3 0  9999","line2":"2 67882  97.2855  78.5953 0002175  94.1805 265.9686 15.33462593 15692","mean_motion":15.33462593,"eccentricity":0.0002175,"inclination_deg":97.2855,"raan_deg":78.5953,"arg_perigee_deg":94.1805,"mean_anomaly_deg":265.9686,"bstar":0.0005436,"rev_number":1569,"period_min":93.905127296444,"perigee_km":464.00234153515,"apogee_km":466.97931964146,"semimajor_km":6843.6278305883,"source":"CELESTRAK","updated_at":"2026-05-25T13:38:21.732097Z"}}}